When you browse on this site, cookies collect data to enhance your experience and personalize the content and advertising you see.
Visit our Privacy Policy to learn more. By continuing to use the site, you agree to this use of cookies and data.
  • In Czech Republic
  • List of Countries
  • For 7 days
  • Water Temperature
  • Satellite Maps
  • Weather Map
  • Weather Widgets
  • user-avatar
    Login

    Hourly Weather Chiquimula

    Today, 18 December, Tuesday

    Time Temperature Precipitation Wind Pressure Humidity
    00:00 +18°C° 0 mm 2 mps 710 mmHg 91%
    01:00 +18°C° 0 mm 2 mps 710 mmHg 91%
    02:00 +19°C° 0 mm 1 mps 710 mmHg 92%
    03:00 +19°C° 0 mm 1 mps 709 mmHg 92%
    04:00 +18°C° 0 mm 1 mps 709 mmHg 93%
    05:00 +18°C° 0 mm 1 mps 709 mmHg 93%
    06:00 +18°C° 0 mm 1 mps 709 mmHg 93%
    07:00 +20°C° 0 mm 1 mps 710 mmHg 86%
    08:00 +22°C° 0 mm 1 mps 710 mmHg 78%
    09:00 +23°C° 0 mm 1 mps 710 mmHg 70%
    10:00 +25°C° 0 mm 2 mps 710 mmHg 63%
    11:00 +27°C° 0 mm 2 mps 710 mmHg 56%
    12:00 +29°C° 0 mm 2 mps 709 mmHg 50%
    13:00 +29°C° 0 mm 2 mps 709 mmHg 48%
    14:00 +29°C° 0 mm 2 mps 708 mmHg 47%
    15:00 +29°C° 0 mm 2 mps 708 mmHg 46%
    16:00 +27°C° 0 mm 1 mps 707 mmHg 56%
    17:00 +24°C° 0 mm 1 mps 707 mmHg 67%
    18:00 +22°C° 0 mm 1 mps 707 mmHg 77%
    19:00 +21°C° 0 mm 1 mps 707 mmHg 82%
    20:00 +20°C° 0 mm 1 mps 708 mmHg 87%
    21:00 +19°C° 0 mm 1 mps 708 mmHg 92%
    22:00 +19°C° 0 mm 1 mps 708 mmHg 93%
    23:00 +19°C° 0 mm 1 mps 708 mmHg 94%

    Tomorrow, 19 December, Wednesday

    Time Temperature Precipitation Wind Pressure Humidity
    00:00 +18°C° 0 mm 1 mps 708 mmHg 95%
    01:00 +18°C° 0 mm 1 mps 708 mmHg 94%
    02:00 +18°C° 0 mm 1 mps 707 mmHg 94%
    03:00 +18°C° 0 mm 1 mps 707 mmHg 93%
    04:00 +18°C° 0 mm 1 mps 707 mmHg 92%
    05:00 +18°C° 0 mm 1 mps 707 mmHg 91%
    06:00 +18°C° 0 mm 1 mps 707 mmHg 90%
    07:00 +21°C° 0 mm 1 mps 707 mmHg 78%
    08:00 +24°C° 0 mm 1 mps 708 mmHg 66%
    09:00 +27°C° 0 mm 1 mps 709 mmHg 53%
    10:00 +28°C° 0 mm 2 mps 708 mmHg 49%
    11:00 +30°C° 0 mm 2 mps 708 mmHg 44%
    12:00 +32°C° 0 mm 2 mps 708 mmHg 40%
    13:00 +32°C° 0 mm 2 mps 707 mmHg 40%
    14:00 +32°C° 0 mm 2 mps 706 mmHg 41%
    15:00 +33°C° 0 mm 3 mps 705 mmHg 42%
    16:00 +29°C° 0 mm 2 mps 705 mmHg 50%
    17:00 +27°C° 0 mm 2 mps 705 mmHg 58%
    18:00 +25°C° 0 mm 1 mps 705 mmHg 67%
    19:00 +24°C° 0 mm 1 mps 706 mmHg 72%
    20:00 +22°C° 0 mm 1 mps 706 mmHg 77%
    21:00 +21°C° 0 mm 1 mps 707 mmHg 83%
    22:00 +21°C° 0 mm 1 mps 706 mmHg 84%
    23:00 +21°C° 0 mm 1 mps 706 mmHg 85%

    Day after tomorrow, 20 December, Thursday

    Time Temperature Precipitation Wind Pressure Humidity
    00:00 +20°C° 0 mm 1 mps 706 mmHg 86%
    01:00 +20°C° 0 mm 1 mps 706 mmHg 86%
    02:00 +20°C° 0 mm 1 mps 706 mmHg 86%
    03:00 +19°C° 0 mm 1 mps 706 mmHg 86%
    04:00 +19°C° 0 mm 1 mps 706 mmHg 85%
    05:00 +19°C° 0 mm 1 mps 706 mmHg 85%
    06:00 +19°C° 0 mm 1 mps 706 mmHg 85%
    07:00 +22°C° 0 mm 1 mps 707 mmHg 74%
    08:00 +25°C° 0 mm 1 mps 708 mmHg 62%
    09:00 +27°C° 0 mm 1 mps 709 mmHg 51%
    10:00 +30°C° 0 mm 1 mps 709 mmHg 45%
    11:00 +32°C° 0 mm 1 mps 709 mmHg 39%
    12:00 +32°C° 0 mm 0 mps 709 mmHg 34%
    13:00 +33°C° 0 mm 1 mps 708 mmHg 35%
    14:00 +33°C° 0 mm 1 mps 707 mmHg 37%
    15:00 +32°C° 0 mm 1 mps 706 mmHg 39%
    16:00 +29°C° 0 mm 1 mps 706 mmHg 48%
    17:00 +27°C° 0 mm 1 mps 707 mmHg 58%
    18:00 +24°C° 0 mm 1 mps 707 mmHg 67%
    19:00 +23°C° 0.2 mm 1 mps 708 mmHg 74%
    20:00 +23°C° 0.2 mm 2 mps 708 mmHg 81%
    21:00 +21°C° 0.2 mm 2 mps 709 mmHg 89%
    22:00 +21°C° 0.2 mm 2 mps 709 mmHg 90%
    23:00 +20°C° 0.2 mm 2 mps 709 mmHg 91%

    21 December, Friday

    Time Temperature Precipitation Wind Pressure Humidity
    00:00 +20°C° 0.2 mm 2 mps 709 mmHg 93%
    01:00 +20°C° 0 mm 2 mps 709 mmHg 91%
    02:00 +19°C° 0 mm 2 mps 709 mmHg 90%
    03:00 +19°C° 0 mm 3 mps 709 mmHg 88%
    04:00 +18°C° 0 mm 3 mps 709 mmHg 89%
    05:00 +18°C° 0 mm 2 mps 709 mmHg 89%
    06:00 +17°C° 0 mm 2 mps 710 mmHg 89%
    07:00 +18°C° 0 mm 3 mps 710 mmHg 83%
    08:00 +19°C° 0 mm 3 mps 711 mmHg 77%
    09:00 +21°C° 0 mm 3 mps 712 mmHg 71%
    10:00 +22°C° 0 mm 3 mps 712 mmHg 65%
    11:00 +24°C° 0 mm 3 mps 711 mmHg 58%
    12:00 +25°C° 0 mm 4 mps 711 mmHg 52%
    13:00 +25°C° 0 mm 4 mps 710 mmHg 50%
    14:00 +25°C° 0 mm 4 mps 709 mmHg 49%
    15:00 +25°C° 0 mm 4 mps 709 mmHg 47%
    16:00 +22°C° 0 mm 3 mps 709 mmHg 53%
    17:00 +21°C° 0 mm 3 mps 709 mmHg 60%
    18:00 +19°C° 0 mm 3 mps 710 mmHg 67%
    19:00 +18°C° 0 mm 2 mps 710 mmHg 72%
    20:00 +18°C° 0 mm 2 mps 711 mmHg 76%
    21:00 +17°C° 0 mm 2 mps 711 mmHg 81%
    22:00 +16°C° 0 mm 2 mps 711 mmHg 83%
    23:00 +16°C° 0 mm 2 mps 711 mmHg 86%

    22 December, Saturday

    Time Temperature Precipitation Wind Pressure Humidity
    00:00 +16°C° 0 mm 2 mps 710 mmHg 88%
    01:00 +15°C° 0 mm 2 mps 710 mmHg 89%
    02:00 +15°C° 0 mm 2 mps 709 mmHg 90%
    03:00 +15°C° 0 mm 2 mps 709 mmHg 90%
    04:00 +15°C° 0 mm 2 mps 709 mmHg 91%
    05:00 +14°C° 0 mm 2 mps 709 mmHg 91%
    06:00 +14°C° 0 mm 2 mps 710 mmHg 92%
    07:00 +16°C° 0 mm 2 mps 710 mmHg 82%
    08:00 +18°C° 0 mm 2 mps 711 mmHg 73%
    09:00 +20°C° 0 mm 2 mps 712 mmHg 63%
    10:00 +23°C° 0 mm 2 mps 711 mmHg 59%
    11:00 +24°C° 0 mm 3 mps 711 mmHg 54%
    12:00 +25°C° 0 mm 3 mps 710 mmHg 50%
    13:00 +26°C° 0 mm 3 mps 710 mmHg 50%
    14:00 +26°C° 0 mm 3 mps 709 mmHg 50%
    15:00 +26°C° 0 mm 3 mps 708 mmHg 51%
    16:00 +24°C° 0 mm 3 mps 709 mmHg 60%
    17:00 +21°C° 0 mm 2 mps 709 mmHg 69%
    18:00 +19°C° 0 mm 2 mps 709 mmHg 77%
    19:00 +18°C° 0 mm 2 mps 710 mmHg 81%
    20:00 +18°C° 0 mm 2 mps 710 mmHg 84%
    21:00 +17°C° 0 mm 2 mps 711 mmHg 88%
    22:00 +17°C° 0 mm 2 mps 710 mmHg 88%
    23:00 +17°C° 0 mm 2 mps 710 mmHg 88%

    23 December, Sunday

    Time Temperature Precipitation Wind Pressure Humidity
    00:00 +18°C° 0 mm 1 mps 710 mmHg 89%
    01:00 +18°C° 0 mm 1 mps 710 mmHg 89%
    02:00 +18°C° 0 mm 1 mps 709 mmHg 89%
    03:00 +18°C° 0 mm 1 mps 709 mmHg 89%
    04:00 +18°C° 0 mm 1 mps 709 mmHg 90%
    05:00 +18°C° 0 mm 1 mps 709 mmHg 90%
    06:00 +18°C° 0 mm 1 mps 710 mmHg 91%
    07:00 +19°C° 0 mm 2 mps 710 mmHg 87%
    08:00 +20°C° 0 mm 2 mps 711 mmHg 82%
    09:00 +21°C° 0 mm 2 mps 711 mmHg 78%
    10:00 +23°C° 0 mm 2 mps 711 mmHg 75%
    11:00 +24°C° 0 mm 2 mps 710 mmHg 71%
    12:00 +25°C° 0 mm 2 mps 710 mmHg 68%
    13:00 +25°C° 0 mm 2 mps 709 mmHg 67%
    14:00 +25°C° 0 mm 2 mps 709 mmHg 67%
    15:00 +25°C° 0 mm 2 mps 708 mmHg 67%
    16:00 +24°C° 0 mm 2 mps 709 mmHg 73%
    17:00 +21°C° 0 mm 2 mps 709 mmHg 80%
    18:00 +20°C° 0 mm 2 mps 709 mmHg 87%
    19:00 +20°C° 0.1 mm 2 mps 709 mmHg 89%
    20:00 +20°C° 0.1 mm 2 mps 710 mmHg 91%
    21:00 +19°C° 0.1 mm 2 mps 710 mmHg 92%
    22:00 +19°C° 0.1 mm 2 mps 710 mmHg 92%
    23:00 +19°C° 0.1 mm 2 mps 710 mmHg 92%
    Show more